TimeEDT,TemperatureF,Dew PointF,Humidity,Sea Level PressureIn,VisibilityMPH,Wind Direction,Wind SpeedMPH,Gust SpeedMPH,PrecipitationIn,Events,Conditions,WindDirDegrees,DateUTC
12:54 AM,48.0,28.0,46,30.11,10.0,SSE,5.8,-,N/A,,Mostly Cloudy,150,2013-05-14 04:54:00
1:54 AM,48.9,30.0,48,30.09,10.0,SSE,5.8,-,N/A,,Overcast,160,2013-05-14 05:54:00
2:54 AM,50.0,32.0,50,30.07,10.0,SSE,5.8,-,N/A,,Overcast,160,2013-05-14 06:54:00
3:54 AM,51.1,32.0,48,30.04,10.0,South,8.1,-,N/A,,Overcast,170,2013-05-14 07:54:00
4:54 AM,51.1,35.1,54,30.02,10.0,South,8.1,-,N/A,,Mostly Cloudy,190,2013-05-14 08:54:00
5:54 AM,52.0,36.0,54,30.03,10.0,South,8.1,-,N/A,,Overcast,190,2013-05-14 09:54:00
6:54 AM,52.0,37.0,57,30.02,10.0,South,8.1,-,0.00,,Overcast,180,2013-05-14 10:54:00
7:54 AM,54.0,37.0,53,30.02,10.0,South,11.5,-,N/A,,Mostly Cloudy,190,2013-05-14 11:54:00
8:54 AM,57.9,37.0,46,30.00,10.0,South,17.3,-,N/A,,Mostly Cloudy,190,2013-05-14 12:54:00
9:54 AM,64.0,37.0,37,29.95,10.0,SSW,21.9,36.8,N/A,,Scattered Clouds,200,2013-05-14 13:54:00
10:54 AM,66.0,41.0,40,29.91,10.0,SSW,21.9,32.2,N/A,,Mostly Cloudy,200,2013-05-14 14:54:00
11:54 AM,70.0,44.1,39,29.87,10.0,South,21.9,31.1,N/A,,Mostly Cloudy,190,2013-05-14 15:54:00
12:54 PM,73.9,46.9,38,29.84,10.0,SSW,23.0,28.8,N/A,,Scattered Clouds,200,2013-05-14 16:54:00
1:54 PM,77.0,48.9,37,29.83,10.0,SW,20.7,28.8,N/A,,Scattered Clouds,220,2013-05-14 17:54:00
2:54 PM,79.0,50.0,36,29.80,10.0,SW,18.4,25.3,N/A,,Partly Cloudy,230,2013-05-14 18:54:00
3:54 PM,82.9,53.1,36,29.78,10.0,WSW,18.4,-,N/A,,Clear,240,2013-05-14 19:54:00
4:54 PM,84.0,54.0,35,29.78,10.0,West,20.7,28.8,N/A,,Partly Cloudy,260,2013-05-14 20:54:00
5:54 PM,84.9,55.0,36,29.78,10.0,West,15.0,-,N/A,,Scattered Clouds,260,2013-05-14 21:54:00
6:54 PM,84.0,55.9,38,29.78,10.0,WSW,12.7,-,N/A,,Scattered Clouds,240,2013-05-14 22:54:00
7:54 PM,81.0,57.9,45,29.77,10.0,SW,10.4,-,N/A,,Scattered Clouds,230,2013-05-14 23:54:00
8:54 PM,78.1,57.9,50,29.74,10.0,SSW,13.8,-,N/A,,Mostly Cloudy,210,2013-05-15 00:54:00
9:54 PM,75.0,59.0,57,29.76,10.0,SW,11.5,-,N/A,,Partly Cloudy,220,2013-05-15 01:54:00
10:54 PM,73.0,59.0,61,29.77,10.0,SSW,10.4,-,N/A,,Partly Cloudy,210,2013-05-15 02:54:00
11:54 PM,73.0,59.0,61,29.77,10.0,SW,17.3,23.0,N/A,,Scattered Clouds,230,2013-05-15 03:54:00